Skip Page Navigation
NASA JPL Caltech
NASA Logo - Jet Propulsion Laboratory + View the NASA Portal
+ Center for Near-Earth Object Studies
JPL Home Earth Solar System Stars & Galaxies Technology
JPL Solar System Dynamics
BODIES ORBITS EPHEMERIDES TOOLS PHYSICAL DATA DISCOVERY FAQ SITE MAP
JPL Small-Body Database Browser
Search: [ help ]  
79711 (1998 SV102)
Classification: Main-belt Asteroid          SPK-ID: 2079711
Ephemeris | Orbit Diagram | Orbital Elements | Mission Design | Physical Parameters | Discovery Circumstances | Close-Approach Data ]

[ show orbit diagram ]
Orbital Elements at Epoch 2459000.5 (2020-May-31.0) TDB
Reference: JPL 17 (heliocentric ecliptic J2000)
 Element Value Uncertainty (1-sigma)   Units 
e .07681444449410681 4.9827e-08  
a 2.312872799719254 8.9861e-09 au
q 2.13521076042329 1.1425e-07 au
i 5.986150317057181 5.9058e-06 deg
node 172.6390922019284 3.524e-05 deg
peri 49.59713586731964 4.6169e-05 deg
M 198.9232879475582 3.0534e-05 deg
tp 2459575.352342187918
(2021-Dec-26.85234219)
0.0001095 TDB
period 1284.77196082991
3.52
7.4875e-06
2.05e-08
d
yr
n .2802053679374001 1.633e-09 deg/d
Q 2.490534839015218 9.6764e-09 au
  Orbit Determination Parameters
   # obs. used (total)      630  
   data-arc span      10304 days (28.21 yr)  
   first obs. used      1991-09-09  
   last obs. used      2019-11-25  
   planetary ephem.      DE431  
   SB-pert. ephem.      SB431-N16  
   condition code      0  
   norm. resid. RMS      .59634  
   source      ORB  
   producer      Otto Matic  
   solution date      2019-Dec-14 07:44:32  

Additional Information
 Earth MOID = 1.13303 au 
 Jupiter MOID = 2.48114 au 
 T_jup = 3.572 
[ show covariance matrix ]

Ephemeris | Orbit Diagram | Orbital Elements | Mission Design | Physical Parameters | Discovery Circumstances | Close-Approach Data ]

Physical Parameter Table
Parameter Symbol Value Units Sigma Reference Notes
absolute magnitude H 16.1   n/a MPO240774  

79711 (1998 SV102)          Discovered 1998-Sep-26 by LINEAR at Socorro
Reference: 20040504/Numbers.arcLast Updated: 2004-07-16

[ show close-approach data ]
Ephemeris | Orbit Diagram | Orbital Elements | Mission Design | Physical Parameters | Discovery Circumstances | Close-Approach Data ]
ABOUT SSD CREDITS/AWARDS PRIVACY/COPYRIGHT GLOSSARY LINKS
FirstGov 2020-Jul-03 13:36 UT
(server date/time)  
NASA Home Page
Site Manager:   Ryan S. Park
Webmaster  Alan B. Chamberlin